TimeEST,TemperatureF,Dew PointF,Humidity,Sea Level PressureIn,VisibilityMPH,Wind Direction,Wind SpeedMPH,Gust SpeedMPH,PrecipitationIn,Events,Conditions,WindDirDegrees,DateUTC
12:50 AM,69.8,68.0,94,29.93,10.0,NNE,5.8,-,0.01,Rain,Light Rain,30,2013-02-16 05:50:00
12:53 AM,70.0,68.0,93,29.93,10.0,NNE,4.6,-,0.01,Rain,Light Rain,20,2013-02-16 05:53:00
1:01 AM,69.8,68.0,94,29.93,10.0,NNE,4.6,-,0.00,Rain,Light Rain,20,2013-02-16 06:01:00
1:10 AM,69.8,68.0,94,29.93,10.0,NNE,5.8,-,0.00,Rain,Light Rain,20,2013-02-16 06:10:00
1:17 AM,69.8,68.0,94,29.92,10.0,NNE,4.6,-,0.00,Rain,Light Rain,20,2013-02-16 06:17:00
1:44 AM,69.8,68.0,94,29.91,10.0,NNE,8.1,-,0.01,Rain,Light Rain,20,2013-02-16 06:44:00
1:53 AM,70.0,68.0,93,29.91,10.0,North,5.8,-,0.01,Rain,Light Rain,10,2013-02-16 06:53:00
2:08 AM,69.8,68.0,94,29.91,10.0,North,6.9,-,0.00,Rain,Light Rain,10,2013-02-16 07:08:00
2:43 AM,69.8,66.2,88,29.91,10.0,North,5.8,-,0.00,Rain,Light Rain,10,2013-02-16 07:43:00
2:53 AM,70.0,66.9,90,29.90,10.0,North,10.4,-,0.00,Rain,Light Rain,10,2013-02-16 07:53:00
3:44 AM,69.8,64.4,83,29.91,10.0,North,12.7,-,0.00,Rain,Light Rain,360,2013-02-16 08:44:00
3:53 AM,69.1,63.0,81,29.91,10.0,North,9.2,-,0.00,Rain,Light Rain,10,2013-02-16 08:53:00
4:53 AM,69.1,64.9,87,29.90,10.0,North,10.4,-,0.00,Rain,Light Rain,10,2013-02-16 09:53:00
5:34 AM,69.8,64.4,83,29.91,10.0,North,11.5,-,0.00,Rain,Light Rain,360,2013-02-16 10:34:00
5:53 AM,69.1,64.9,87,29.91,10.0,North,8.1,-,0.00,Rain,Light Rain,10,2013-02-16 10:53:00
6:06 AM,69.8,64.4,83,29.92,10.0,North,11.5,-,0.00,,Overcast,360,2013-02-16 11:06:00
6:53 AM,69.1,63.0,81,29.94,10.0,North,12.7,-,0.00,,Overcast,360,2013-02-16 11:53:00
7:53 AM,69.1,62.1,78,29.94,10.0,North,9.2,-,N/A,,Overcast,360,2013-02-16 12:53:00
8:53 AM,70.0,62.1,76,29.96,10.0,North,11.5,-,N/A,,Overcast,350,2013-02-16 13:53:00
9:53 AM,72.0,62.1,71,29.98,10.0,NNW,13.8,-,N/A,,Mostly Cloudy,340,2013-02-16 14:53:00
10:53 AM,73.0,61.0,66,30.00,10.0,NNW,16.1,21.9,N/A,,Mostly Cloudy,330,2013-02-16 15:53:00
11:53 AM,73.0,59.0,61,30.00,10.0,NNW,18.4,25.3,N/A,,Mostly Cloudy,340,2013-02-16 16:53:00
12:53 PM,70.0,55.9,61,30.00,10.0,NNW,18.4,26.5,N/A,,Mostly Cloudy,330,2013-02-16 17:53:00
1:53 PM,69.1,55.9,63,29.99,10.0,NW,17.3,25.3,N/A,,Overcast,320,2013-02-16 18:53:00
2:53 PM,70.0,55.9,61,29.99,10.0,WNW,21.9,29.9,N/A,,Overcast,300,2013-02-16 19:53:00
3:53 PM,70.0,54.0,57,29.99,10.0,NW,19.6,28.8,N/A,,Mostly Cloudy,310,2013-02-16 20:53:00
4:53 PM,69.1,54.0,58,30.01,10.0,NW,21.9,31.1,N/A,,Mostly Cloudy,320,2013-02-16 21:53:00
5:53 PM,68.0,52.0,56,30.01,10.0,NW,17.3,31.1,N/A,,Mostly Cloudy,320,2013-02-16 22:53:00
6:53 PM,68.0,54.0,61,30.02,10.0,NW,21.9,28.8,N/A,,Mostly Cloudy,310,2013-02-16 23:53:00
7:53 PM,66.9,55.9,68,30.05,10.0,NNW,23.0,28.8,N/A,,Mostly Cloudy,340,2013-02-17 00:53:00
8:53 PM,66.0,55.0,68,30.08,10.0,NNW,21.9,28.8,N/A,,Mostly Cloudy,340,2013-02-17 01:53:00
9:53 PM,64.9,53.1,65,30.09,10.0,NW,20.7,28.8,N/A,,Scattered Clouds,320,2013-02-17 02:53:00
10:53 PM,66.0,51.1,59,30.10,10.0,NNW,23.0,28.8,N/A,,Mostly Cloudy,330,2013-02-17 03:53:00
11:53 PM,64.9,50.0,58,30.10,10.0,NNW,18.4,26.5,N/A,,Partly Cloudy,330,2013-02-17 04:53:00